This is the latest recevied weather packets stored in our database for station/object IW9DKU-3. If no packets are shown the sender has not sent any weather packets the latest 10 day(s).
| Time | Temp. | Humidity | Pressure | Rain* | Wind** | Luminosity | Snow |
|---|---|---|---|---|---|---|---|
| 1777736883 | 20° C | 51% | 1027.5 hPa | - | - | - | - |
| 1777735680 | 20° C | 51% | 1027.3 hPa | - | - | - | - |
| 1777734677 | 20° C | 52% | 1027.3 hPa | - | - | - | - |
| 1777734476 | 20° C | 52% | 1027.3 hPa | - | - | - | - |
| 1777733273 | 20° C | 50% | 1027.1 hPa | - | - | - | - |
| 1777732069 | 20° C | 50% | 1027.2 hPa | - | - | - | - |
| 1777730866 | 20° C | 47% | 1026.9 hPa | - | - | - | - |
| 1777729662 | 20° C | 49% | 1026.9 hPa | - | - | - | - |
| 1777728459 | 20° C | 48% | 1027.1 hPa | - | - | - | - |
| 1777727256 | 20° C | 41% | 1027.2 hPa | - | - | - | - |
| 1777726052 | 20° C | 47% | 1027.2 hPa | - | - | - | - |
| 1777724849 | 20° C | 47% | 1026.9 hPa | - | - | - | - |
| 1777723645 | 20° C | 50% | 1027.1 hPa | - | - | - | - |
| 1777722442 | 20° C | 51% | 1026.9 hPa | - | - | - | - |
| 1777720035 | 20° C | 48% | 1026.9 hPa | - | - | - | - |
| 1777718831 | 20° C | 43% | 1027.1 hPa | - | - | - | - |
| 1777717627 | 20° C | 43% | 1027 hPa | - | - | - | - |
| 1777716423 | 20° C | 45% | 1026.8 hPa | - | - | - | - |
| 1777715219 | 20° C | 51% | 1026.9 hPa | - | - | - | - |
| 1777712811 | 19.44° C | 52% | 1026.7 hPa | - | - | - | - |
| 1777711607 | 19.44° C | 53% | 1026.6 hPa | - | - | - | - |
| 1777710403 | 18.89° C | 51% | 1026.5 hPa | - | - | - | - |
| 1777709199 | 18.89° C | 51% | 1026.4 hPa | - | - | - | - |
| 1777707995 | 18.33° C | 55% | 1026.5 hPa | - | - | - | - |
| 1777706791 | 18.33° C | 56% | 1026.3 hPa | - | - | - | - |
* Rain since midnight (hover to see other rain measurements)
** Current wind speed in m/s (hover to see current wind gust speed)